Volver al catálogo

DMSP 5D-2 F11 DEB

ActivoSSO
NORAD 28343·DEBRIS·🇺🇸 United States

Lanzado Nov 28, 1991 desde Vandenberg Space Force Base

Loading…

Próximos Pases (próximas 24 horas)

TLE

ActualizadoSource: Space-Track

Época: Sep 13, 2026, 12:35 UTC

1 28343U 91082BG  26256.52471717  .00003650  00000-0  11780-2 0  9998
2 28343  98.8867 353.5769 0058141 291.5763  67.9234 14.38848451148413

Sigue DMSP 5D-2 F11 DEB en tiempo real con AllMySat

Download on the App Store